Location: Del Amo
(33.8464°N, 118.2104°W)
Time: 20:04:07
(UTC+00:00)

S-56A Canister/Altair - Pass Details

Date: 17 September 2024
Orbit: 636 x 2487 km, 38.9° (Epoch: 14 October)

Event Time Altitude Azimuth Distance (km) Brightness Sun altitude
Rises 08:53:39 0° 285° (WNW) 4,673 - -50.9°
Reaches altitude 10° 08:56:52 10° 275° (W) 3,945 - -50.6°
Maximum altitude 09:05:56 31° 218° (SW) 3,154 - -49.7°
Drops below altitude 10° 09:17:30 10° 164° (SSE) 5,031 - -48.3°
Sets 09:22:20 0° 155° (SSE) 6,129 - -47.8°
